Wetterdaten: Woche 27.01.14 - 02.02.14 (KW5)
Datum Zeit Temp. Auen Feucht Auen Luftdruck Regen Richtung Windben
27.01.2014 00:00 -3,8 C 94 % 1003,9 hPa 0,0 mm W 1,7 km/h (1 Bft)
27.01.2014 01:00 -2,8 C 94 % 1002,5 hPa 0,0 mm W 1,7 km/h (1 Bft)
27.01.2014 02:00 -2,1 C 94 % 1001,2 hPa 0,0 mm W 2,4 km/h (1 Bft)
27.01.2014 03:00 -1,6 C 94 % 999,8 hPa 0,0 mm W 3,7 km/h (1 Bft)
27.01.2014 04:00 -0,9 C 94 % 1000,0 hPa 0,6 mm W 3,7 km/h (1 Bft)
27.01.2014 05:00 -0,3 C 94 % 999,8 hPa 1,2 mm W 0,7 km/h (0 Bft)
27.01.2014 06:00 -0,1 C 94 % 999,8 hPa 0,4 mm W 0,1 km/h (0 Bft)
27.01.2014 07:00 0,5 C 94 % 1000,8 hPa 0,6 mm W 2,4 km/h (1 Bft)
27.01.2014 08:00 1,2 C 94 % 1001,5 hPa 0,2 mm W 3,3 km/h (1 Bft)
27.01.2014 09:00 1,4 C 94 % 1001,8 hPa 0,0 mm O 5,9 km/h (2 Bft)
27.01.2014 10:00 1,8 C 94 % 1002,0 hPa 0,0 mm O 4,0 km/h (1 Bft)
27.01.2014 11:00 2,1 C 93 % 1002,2 hPa 0,0 mm O-SO 0,8 km/h (0 Bft)
27.01.2014 12:00 2,0 C 93 % 1002,5 hPa 2,0 mm W 3,5 km/h (1 Bft)
27.01.2014 13:00 1,4 C 94 % 1002,6 hPa 0,6 mm W-SW 0,8 km/h (0 Bft)
27.01.2014 14:00 1,5 C 94 % 1002,6 hPa 0,4 mm W-SW 1,1 km/h (0 Bft)
27.01.2014 15:00 1,2 C 94 % 1003,1 hPa 1,4 mm W 7,1 km/h (2 Bft)
27.01.2014 16:00 1,0 C 94 % 1003,5 hPa 1,4 mm W 1,7 km/h (1 Bft)
27.01.2014 17:00 0,8 C 94 % 1004,0 hPa 0,2 mm W 0,0 km/h (0 Bft)
27.01.2014 18:00 0,6 C 94 % 1004,1 hPa 0,0 mm O 0,0 km/h (0 Bft)
27.01.2014 19:00 0,6 C 94 % 1004,1 hPa 0,2 mm O 0,0 km/h (0 Bft)
27.01.2014 20:00 0,5 C 94 % 1004,1 hPa 0,0 mm O-SO 0,0 km/h (0 Bft)
27.01.2014 21:00 -0,1 C 94 % 1003,9 hPa 0,0 mm O-SO 0,0 km/h (0 Bft)
27.01.2014 22:00 -0,7 C 94 % 1004,1 hPa 0,0 mm W-SW 0,0 km/h (0 Bft)
27.01.2014 23:00 -1,3 C 94 % 1004,3 hPa 0,0 mm W 0,0 km/h (0 Bft)
28.01.2014 00:00 -2,4 C 94 % 1004,3 hPa 0,0 mm W 0,0 km/h (0 Bft)
28.01.2014 01:00 -2,9 C 94 % 1004,2 hPa 0,0 mm W 0,0 km/h (0 Bft)
28.01.2014 02:00 -2,2 C 94 % 1004,1 hPa 0,0 mm W 0,0 km/h (0 Bft)
28.01.2014 03:00 -1,4 C 94 % 1003,8 hPa 0,0 mm W 0,0 km/h (0 Bft)
28.01.2014 04:00 -1,1 C 94 % 1003,8 hPa 0,0 mm W 0,0 km/h (0 Bft)
28.01.2014 05:00 -1,0 C 94 % 1003,9 hPa 0,0 mm W 0,0 km/h (0 Bft)
28.01.2014 06:00 -0,9 C 94 % 1004,3 hPa 0,0 mm W 0,0 km/h (0 Bft)
28.01.2014 07:00 -0,9 C 94 % 1004,4 hPa 0,0 mm W 0,0 km/h (0 Bft)
28.01.2014 08:00 -0,5 C 94 % 1004,6 hPa 0,0 mm W 0,0 km/h (0 Bft)
28.01.2014 09:00 0,2 C 94 % 1004,6 hPa 0,2 mm W 0,0 km/h (0 Bft)
28.01.2014 10:00 0,4 C 94 % 1004,6 hPa 0,2 mm W 0,4 km/h (0 Bft)
28.01.2014 11:00 0,5 C 94 % 1004,1 hPa 0,2 mm W 0,0 km/h (0 Bft)
28.01.2014 12:00 0,7 C 94 % 1003,6 hPa 0,0 mm W 0,4 km/h (0 Bft)
28.01.2014 13:00 0,8 C 94 % 1003,2 hPa 0,0 mm O-NO 1,3 km/h (1 Bft)
28.01.2014 14:00 0,9 C 93 % 1002,9 hPa 0,2 mm N-NW 0,8 km/h (0 Bft)
28.01.2014 15:00 0,4 C 94 % 1002,7 hPa 0,0 mm N-NW 1,1 km/h (0 Bft)
28.01.2014 16:00 0,5 C 94 % 1002,4 hPa 0,0 mm O-SO 3,2 km/h (1 Bft)
28.01.2014 17:00 -0,2 C 94 % 1002,5 hPa 0,0 mm O-SO 0,3 km/h (0 Bft)
28.01.2014 18:00 -1,5 C 94 % 1002,5 hPa 0,0 mm O-SO 0,0 km/h (0 Bft)
28.01.2014 19:00 -1,6 C 94 % 1002,4 hPa 0,0 mm O-SO 0,5 km/h (0 Bft)
28.01.2014 20:00 -1,7 C 94 % 1002,3 hPa 0,0 mm SO 1,9 km/h (1 Bft)
28.01.2014 21:00 -2,2 C 94 % 1002,2 hPa 0,0 mm SO 0,8 km/h (0 Bft)
28.01.2014 22:00 -2,1 C 94 % 1002,0 hPa 0,0 mm O-SO 2,3 km/h (1 Bft)
28.01.2014 23:00 -2,3 C 94 % 1002,0 hPa 0,0 mm O-SO 1,5 km/h (1 Bft)
29.01.2014 00:00 -1,9 C 94 % 1002,0 hPa 0,0 mm O-SO 1,6 km/h (1 Bft)
29.01.2014 01:00 -1,7 C 94 % 1002,0 hPa 0,0 mm O-SO 0,4 km/h (0 Bft)
29.01.2014 02:00 -1,6 C 94 % 1002,0 hPa 0,0 mm O-SO 0,1 km/h (0 Bft)
29.01.2014 03:00 -1,6 C 94 % 1001,7 hPa 0,0 mm O-SO 0,7 km/h (0 Bft)
29.01.2014 04:00 -1,7 C 94 % 1001,6 hPa 0,0 mm O-SO 1,6 km/h (1 Bft)
29.01.2014 05:00 -1,6 C 94 % 1001,7 hPa 0,0 mm O-SO 4,5 km/h (1 Bft)
29.01.2014 06:00 -1,7 C 94 % 1001,9 hPa 0,0 mm S-SO 4,3 km/h (1 Bft)
29.01.2014 07:00 -1,7 C 93 % 1002,3 hPa 0,0 mm S-SO 2,1 km/h (1 Bft)
29.01.2014 08:00 -2,1 C 93 % 1002,6 hPa 0,0 mm O 1,1 km/h (0 Bft)
29.01.2014 09:00 -2,1 C 92 % 1003,0 hPa 0,0 mm O-SO 2,4 km/h (1 Bft)
29.01.2014 10:00 -1,8 C 91 % 1003,1 hPa 0,0 mm O 5,2 km/h (1 Bft)
29.01.2014 11:00 -1,7 C 91 % 1003,1 hPa 0,0 mm O 10,9 km/h (2 Bft)
29.01.2014 12:00 -1,4 C 91 % 1002,9 hPa 0,0 mm O 10,8 km/h (2 Bft)
29.01.2014 13:00 -1,1 C 91 % 1003,0 hPa 0,0 mm O 12,9 km/h (3 Bft)
29.01.2014 14:00 -1,1 C 91 % 1003,0 hPa 0,0 mm O 14,9 km/h (3 Bft)
29.01.2014 15:00 -1,3 C 92 % 1003,4 hPa 0,0 mm O 13,0 km/h (3 Bft)
29.01.2014 16:00 -1,6 C 92 % 1003,8 hPa 0,0 mm O-NO 10,3 km/h (2 Bft)
29.01.2014 17:00 -2,3 C 92 % 1004,3 hPa 0,0 mm O 9,7 km/h (2 Bft)
29.01.2014 18:00 -2,2 C 93 % 1004,6 hPa 0,0 mm O 10,6 km/h (2 Bft)
29.01.2014 19:00 -2,3 C 93 % 1005,2 hPa 0,0 mm O 9,4 km/h (2 Bft)
29.01.2014 20:00 -2,7 C 93 % 1005,8 hPa 0,0 mm O 6,8 km/h (2 Bft)
29.01.2014 21:00 -3,1 C 93 % 1006,5 hPa 0,0 mm O-NO 4,1 km/h (1 Bft)
29.01.2014 22:00 -4,7 C 93 % 1006,9 hPa 0,0 mm S-SO 0,1 km/h (0 Bft)
29.01.2014 23:00 -5,9 C 94 % 1007,4 hPa 0,0 mm S-SO 0,1 km/h (0 Bft)
30.01.2014 00:00 -6,6 C 94 % 1007,8 hPa 0,0 mm S-SO 0,3 km/h (0 Bft)
30.01.2014 01:00 -6,1 C 94 % 1007,9 hPa 0,0 mm NO 0,9 km/h (0 Bft)
30.01.2014 02:00 -6,3 C 94 % 1008,5 hPa 0,0 mm SO 0,0 km/h (0 Bft)
30.01.2014 03:00 -5,8 C 94 % 1008,7 hPa 0,0 mm O-SO 1,6 km/h (1 Bft)
30.01.2014 04:00 -4,9 C 94 % 1009,2 hPa 0,0 mm O-SO 1,2 km/h (1 Bft)
30.01.2014 05:00 -4,5 C 94 % 1009,5 hPa 0,0 mm O-SO 2,7 km/h (1 Bft)
30.01.2014 06:00 -4,2 C 94 % 1009,7 hPa 0,0 mm O 4,7 km/h (1 Bft)
30.01.2014 07:00 -4,3 C 94 % 1010,2 hPa 0,0 mm SO 3,9 km/h (1 Bft)
30.01.2014 08:00 -4,3 C 94 % 1010,9 hPa 0,0 mm SO 4,1 km/h (1 Bft)
30.01.2014 09:00 -3,8 C 94 % 1011,4 hPa 0,0 mm O 11,3 km/h (2 Bft)
30.01.2014 10:00 -3,5 C 93 % 1011,5 hPa 0,0 mm O-NO 13,7 km/h (3 Bft)
30.01.2014 11:00 -3,3 C 92 % 1011,3 hPa 0,0 mm O 14,0 km/h (3 Bft)
30.01.2014 12:00 -2,9 C 92 % 1010,8 hPa 0,0 mm O 15,0 km/h (3 Bft)
30.01.2014 13:00 -2,5 C 92 % 1010,4 hPa 0,0 mm O 19,7 km/h (3 Bft)
30.01.2014 14:00 -2,0 C 92 % 1009,8 hPa 0,0 mm O 19,3 km/h (3 Bft)
30.01.2014 15:00 -1,9 C 92 % 1009,3 hPa 0,0 mm O 15,0 km/h (3 Bft)
30.01.2014 16:00 -2,1 C 92 % 1008,9 hPa 0,0 mm O 13,7 km/h (3 Bft)
30.01.2014 17:00 -2,1 C 92 % 1008,8 hPa 0,0 mm O 15,8 km/h (3 Bft)
30.01.2014 18:00 -2,7 C 93 % 1008,6 hPa 0,0 mm O 11,0 km/h (2 Bft)
30.01.2014 19:00 -3,0 C 93 % 1008,3 hPa 0,0 mm O-SO 11,6 km/h (2 Bft)
30.01.2014 20:00 -3,1 C 94 % 1008,0 hPa 0,0 mm O-SO 12,5 km/h (3 Bft)
30.01.2014 21:00 -2,8 C 94 % 1007,8 hPa 0,0 mm O 16,6 km/h (3 Bft)
30.01.2014 22:00 -2,7 C 94 % 1007,7 hPa 0,0 mm O-NO 14,9 km/h (3 Bft)
30.01.2014 23:00 -2,1 C 94 % 1007,7 hPa 0,0 mm O-NO 16,1 km/h (3 Bft)
31.01.2014 00:00 -1,8 C 94 % 1007,8 hPa 0,0 mm O-NO 15,2 km/h (3 Bft)
31.01.2014 01:00 -1,7 C 94 % 1008,3 hPa 0,0 mm O 16,4 km/h (3 Bft)
31.01.2014 02:00 -1,3 C 94 % 1008,6 hPa 0,0 mm O-NO 16,2 km/h (3 Bft)
31.01.2014 03:00 -1,2 C 94 % 1008,2 hPa 0,0 mm O 17,3 km/h (3 Bft)
31.01.2014 04:00 -1,3 C 94 % 1008,2 hPa 0,0 mm O-NO 14,1 km/h (3 Bft)
31.01.2014 05:00 -0,9 C 94 % 1008,5 hPa 0,0 mm NO 14,9 km/h (3 Bft)
31.01.2014 06:00 -0,7 C 94 % 1009,0 hPa 0,0 mm O 12,9 km/h (3 Bft)
31.01.2014 07:00 -0,6 C 94 % 1009,2 hPa 0,0 mm O 9,7 km/h (2 Bft)
31.01.2014 08:00 -0,3 C 94 % 1009,7 hPa 0,0 mm W 3,5 km/h (1 Bft)
31.01.2014 09:00 0,4 C 94 % 1010,6 hPa 0,0 mm W 5,2 km/h (1 Bft)
31.01.2014 10:00 0,6 C 92 % 1011,1 hPa 0,0 mm W 7,7 km/h (2 Bft)
31.01.2014 11:00 0,8 C 90 % 1011,1 hPa 0,0 mm W-NW 5,9 km/h (2 Bft)
31.01.2014 12:00 1,4 C 89 % 1010,9 hPa 0,0 mm W 3,9 km/h (1 Bft)
31.01.2014 13:00 1,7 C 88 % 1011,2 hPa 0,0 mm W 4,8 km/h (1 Bft)
31.01.2014 14:00 1,5 C 89 % 1011,3 hPa 0,0 mm W 4,5 km/h (1 Bft)
31.01.2014 15:00 1,4 C 89 % 1011,5 hPa 0,0 mm W 3,1 km/h (1 Bft)
31.01.2014 16:00 0,6 C 90 % 1011,9 hPa 0,0 mm W-NW 1,2 km/h (1 Bft)
31.01.2014 17:00 -0,9 C 92 % 1012,0 hPa 0,0 mm W-NW 0,4 km/h (0 Bft)
31.01.2014 18:00 -1,3 C 93 % 1012,1 hPa 0,0 mm W 3,3 km/h (1 Bft)
31.01.2014 19:00 -1,2 C 93 % 1012,4 hPa 0,0 mm W 4,3 km/h (1 Bft)
31.01.2014 20:00 -1,6 C 93 % 1012,9 hPa 0,0 mm W 1,9 km/h (1 Bft)
31.01.2014 21:00 -2,4 C 93 % 1013,2 hPa 0,0 mm W 2,8 km/h (1 Bft)
31.01.2014 22:00 -2,9 C 93 % 1012,6 hPa 0,0 mm W 1,7 km/h (1 Bft)
31.01.2014 23:00 -3,8 C 93 % 1011,9 hPa 0,0 mm W 1,5 km/h (1 Bft)
01.02.2014 00:00 -4,5 C 93 % 1011,6 hPa 0,0 mm W 2,1 km/h (1 Bft)
01.02.2014 01:00 -4,8 C 94 % 1011,1 hPa 0,0 mm W 2,5 km/h (1 Bft)
01.02.2014 02:00 -4,1 C 94 % 1010,6 hPa 0,0 mm W 1,5 km/h (1 Bft)
01.02.2014 03:00 -4,0 C 94 % 1009,9 hPa 0,0 mm W 2,7 km/h (1 Bft)
01.02.2014 04:00 -4,0 C 94 % 1009,5 hPa 0,0 mm W 3,1 km/h (1 Bft)
01.02.2014 05:00 -4,4 C 94 % 1009,1 hPa 0,0 mm W-NW 2,5 km/h (1 Bft)
01.02.2014 06:00 -4,5 C 94 % 1008,6 hPa 0,0 mm W 2,7 km/h (1 Bft)
01.02.2014 07:00 -4,4 C 94 % 1008,5 hPa 0,0 mm W 2,5 km/h (1 Bft)
01.02.2014 08:00 -3,9 C 94 % 1008,3 hPa 0,0 mm W 2,8 km/h (1 Bft)
01.02.2014 09:00 -2,5 C 94 % 1007,8 hPa 0,0 mm W 1,2 km/h (1 Bft)
01.02.2014 10:00 -0,9 C 94 % 1007,4 hPa 0,0 mm SO 4,7 km/h (1 Bft)
01.02.2014 11:00 0,3 C 94 % 1006,8 hPa 0,0 mm SO 4,9 km/h (1 Bft)
01.02.2014 12:00 1,0 C 95 % 1006,2 hPa 0,0 mm SO 4,3 km/h (1 Bft)
01.02.2014 13:00 2,3 C 94 % 1005,7 hPa 0,0 mm O 3,1 km/h (1 Bft)
01.02.2014 14:00 3,3 C 92 % 1005,4 hPa 0,0 mm O-NO 0,9 km/h (0 Bft)
01.02.2014 15:00 3,8 C 91 % 1005,3 hPa 0,0 mm W-NW 1,9 km/h (1 Bft)
01.02.2014 16:00 3,6 C 91 % 1005,7 hPa 0,0 mm W 3,5 km/h (1 Bft)
01.02.2014 17:00 3,1 C 93 % 1006,3 hPa 0,0 mm W 9,9 km/h (2 Bft)
01.02.2014 18:00 3,4 C 91 % 1008,0 hPa 0,0 mm W 11,5 km/h (2 Bft)
01.02.2014 19:00 2,6 C 92 % 1008,8 hPa 0,0 mm W 6,5 km/h (2 Bft)
01.02.2014 20:00 2,5 C 91 % 1009,8 hPa 0,0 mm W 5,3 km/h (1 Bft)
01.02.2014 21:00 1,3 C 92 % 1009,8 hPa 0,0 mm W 3,9 km/h (1 Bft)
01.02.2014 22:00 -0,3 C 93 % 1009,9 hPa 0,0 mm W 3,6 km/h (1 Bft)
01.02.2014 23:00 -1,2 C 94 % 1009,8 hPa 0,0 mm W 2,5 km/h (1 Bft)
02.02.2014 00:00 -2,3 C 94 % 1009,6 hPa 0,0 mm W 1,6 km/h (1 Bft)
02.02.2014 01:00 -3,1 C 94 % 1009,5 hPa 0,0 mm W 2,1 km/h (1 Bft)
02.02.2014 02:00 -3,5 C 94 % 1009,4 hPa 0,0 mm W 2,9 km/h (1 Bft)
02.02.2014 03:00 -3,7 C 94 % 1009,3 hPa 0,0 mm W 2,0 km/h (1 Bft)
02.02.2014 04:00 -3,8 C 94 % 1009,7 hPa 0,0 mm W 3,2 km/h (1 Bft)
02.02.2014 05:00 -4,2 C 94 % 1010,4 hPa 0,0 mm W-SW 1,9 km/h (1 Bft)
02.02.2014 06:00 -4,4 C 94 % 1011,0 hPa 0,0 mm W-SW 0,9 km/h (0 Bft)
02.02.2014 07:00 -3,8 C 94 % 1012,1 hPa 0,0 mm W 1,7 km/h (1 Bft)
02.02.2014 08:00 -2,9 C 94 % 1012,8 hPa 0,0 mm W 0,0 km/h (0 Bft)
02.02.2014 09:00 -0,4 C 94 % 1013,4 hPa 0,0 mm W 2,3 km/h (1 Bft)
02.02.2014 10:00 1,8 C 93 % 1014,1 hPa 0,0 mm W 5,1 km/h (1 Bft)
02.02.2014 11:00 2,4 C 90 % 1015,0 hPa 0,0 mm W 5,9 km/h (2 Bft)
02.02.2014 12:00 2,8 C 89 % 1015,6 hPa 0,0 mm W 7,4 km/h (2 Bft)
02.02.2014 13:00 2,9 C 89 % 1016,0 hPa 0,0 mm W 5,2 km/h (1 Bft)
02.02.2014 14:00 2,8 C 90 % 1016,4 hPa 0,0 mm W 3,1 km/h (1 Bft)
02.02.2014 15:00 2,7 C 90 % 1016,9 hPa 0,0 mm W 1,5 km/h (1 Bft)
02.02.2014 16:00 2,6 C 90 % 1017,6 hPa 0,0 mm W 1,2 km/h (1 Bft)
02.02.2014 17:00 2,2 C 91 % 1018,3 hPa 0,0 mm W 1,2 km/h (1 Bft)
02.02.2014 18:00 1,9 C 91 % 1018,9 hPa 0,2 mm W 0,1 km/h (0 Bft)
02.02.2014 19:00 1,7 C 92 % 1019,1 hPa 0,4 mm W 0,0 km/h (0 Bft)
02.02.2014 20:00 1,3 C 93 % 1019,2 hPa 0,0 mm W 0,0 km/h (0 Bft)
02.02.2014 21:00 1,1 C 93 % 1019,3 hPa 0,0 mm W 0,0 km/h (0 Bft)
02.02.2014 22:00 1,1 C 93 % 1019,3 hPa 0,0 mm W 0,0 km/h (0 Bft)
02.02.2014 23:00 1,0 C 93 % 1019,2 hPa 0,0 mm W 0,1 km/h (0 Bft)
Min-Datum _ 30.01.14 31.01.14 27.01.14 - - 27.01.14
_ Min-Zeit 00:10 12:55 06:00 - - 00:00
Minimum _ -7,2 C 87 % 999,5 hPa - - 0,0 km/h (0 Bft)
Max-Datum _ 01.02.14 01.02.14 02.02.14 27.01.14 - 30.01.14
_ Max-Zeit 15:20 11:35 22:05 12:35 - 13:40
Maximum _ 4,1 C 95 % 1019,4 hPa 2,0 mm - 24,1 km/h
O (4 Bft)
Durchschnitt _ -1,1 C 93 % 1007,5 hPa #10,6 mm W 4,5 km/h (1 Bft)